Change the Weather History Date:

Wednesday, February 26, 2014

  Actual Average Record
Temperature  
Mean Temperature 40 °F -  
Max Temperature 42 °F 34 °F 42 °F (1985)
Min Temperature 37 °F 28 °F 10 °F (1986)
Degree Days  
Heating Degree Days 26    
Moisture  
Dew Point 41 °F    
Average Humidity 97    
Maximum Humidity 100    
Minimum Humidity 87    
Precipitation  
Precipitation 0.00 in - - ()
Sea Level Pressure  
Sea Level Pressure 29.06 in    
Wind  
Wind Speed 12 mph (ENE)    
Max Wind Speed 20 mph    
Max Gust Speed 37 mph    
Visibility 5 miles    
Events      
Averages and records for this station are not official NWS values.
T = Trace of Precipitation, MM = Missing Value Source: NWS Daily Summary

Daily Weather History Graph

Daily Weather History Graph

Search for Another Location

Airport or City:

Trip Planner

Search our weather history database for the weather conditions in past years. The results will help you decide how hot, cold, wet, or windy it might be!

Date:

Astronomy

Feb. 26, 2014 Rise Set
Actual Time 8:39 AM AKST 7:11 PM AKST
Civil Twilight 8:02 AM AKST 7:48 PM AKST
Nautical Twilight 7:20 AM AKST 8:30 PM AKST
Astronomical Twilight 6:37 AM AKST 9:13 PM AKST
Moon 6:55 AM AKST (2/26) 4:22 PM AKST (2/26)
Length of Visible Light 11h 46m
Length of Day
10h 32m
Waning Crescent, 9% of the Moon is Illuminated
Feb 26
Waning Crescent
Feb 28
New
Mar 8
First Quarter
Mar 16
Full
Mar 23
Last Quarter

Hourly Weather History & Observations

Time (AKST) Temp. Windchill Dew Point Humidity Pressure Visibility Wind Dir Wind Speed Gust Speed Precip Events Conditions
12:16 AM 37.4 °F 27.5 °F 35.6 °F 93% 29.10 in 6.0 mi NE 18.4 mph 36.8 mph N/A   Overcast
12:36 AM 39.2 °F 30.5 °F 37.4 °F 93% 29.10 in 5.0 mi NE 16.1 mph 32.2 mph N/A   Overcast
12:56 AM 39.2 °F 30.5 °F 37.4 °F 93% 29.09 in 7.0 mi NE 16.1 mph 36.8 mph N/A   Overcast
1:16 AM 39.2 °F 29.6 °F 37.4 °F 93% 29.08 in 8.0 mi NE 19.6 mph 29.9 mph N/A   Overcast
1:36 AM 39.2 °F 30.8 °F 39.2 °F 100% 29.08 in 8.0 mi NE 15.0 mph 35.7 mph N/A   Overcast
1:56 AM 39.2 °F 31.6 °F 39.2 °F 100% 29.07 in 8.0 mi NE 12.7 mph 31.1 mph N/A   Overcast
2:16 AM 39.2 °F 30.5 °F 39.2 °F 100% 29.06 in 6.0 mi NE 16.1 mph 27.6 mph N/A   Overcast
2:36 AM 39.2 °F 31.6 °F 39.2 °F 100% 29.06 in 7.0 mi NE 12.7 mph 31.1 mph N/A   Overcast
2:56 AM 41.0 °F 32.8 °F 39.2 °F 93% 29.05 in 8.0 mi NE 16.1 mph 27.6 mph N/A   Overcast
3:16 AM 41.0 °F 33.5 °F 39.2 °F 93% 29.05 in 5.0 mi NE 13.8 mph 27.6 mph N/A   Overcast
3:36 AM 41.0 °F 32.8 °F 39.2 °F 93% 29.04 in 8.0 mi NE 16.1 mph 27.6 mph N/A   Overcast
3:56 AM 41.0 °F 33.1 °F 41.0 °F 100% 29.04 in 6.0 mi NE 15.0 mph 29.9 mph N/A   Overcast
4:16 AM 42.8 °F 37.5 °F 41.0 °F 93% 29.04 in 6.0 mi ENE 9.2 mph 24.2 mph N/A   Overcast
4:36 AM 42.8 °F 35.8 °F 41.0 °F 93% 29.03 in 4.0 mi NE 13.8 mph 21.9 mph N/A   Overcast
4:56 AM 42.8 °F 38.0 °F 41.0 °F 93% 29.02 in 5.0 mi ENE 8.1 mph 20.7 mph N/A   Overcast
5:16 AM 42.8 °F 38.6 °F 42.8 °F 100% 29.02 in 3.0 mi NE 6.9 mph 24.2 mph N/A   Overcast
5:36 AM 42.8 °F 38.6 °F 42.8 °F 100% 29.01 in 4.0 mi NE 6.9 mph 19.6 mph N/A   Overcast
5:56 AM 42.8 °F 37.5 °F 42.8 °F 100% 29.01 in 5.0 mi ENE 9.2 mph 21.9 mph N/A   Overcast
6:16 AM 42.8 °F 39.3 °F 42.8 °F 100% 29.01 in 5.0 mi East 5.8 mph 19.6 mph N/A   Overcast
6:36 AM 42.8 °F 39.3 °F 42.8 °F 100% 29.01 in 6.0 mi East 5.8 mph - N/A   Overcast
6:56 AM 42.8 °F 37.0 °F 42.8 °F 100% 29.02 in 5.0 mi East 10.4 mph 19.6 mph N/A   Overcast
7:16 AM 42.8 °F 39.3 °F 42.8 °F 100% 29.02 in 5.0 mi ENE 5.8 mph 19.6 mph N/A   Overcast
7:36 AM 42.8 °F 38.6 °F 42.8 °F 100% 29.02 in 3.0 mi East 6.9 mph - N/A   Overcast
7:56 AM 42.8 °F 39.3 °F 42.8 °F 100% 29.03 in 4.0 mi East 5.8 mph - N/A   Overcast
8:16 AM 42.8 °F 38.0 °F 42.8 °F 100% 29.03 in 3.0 mi East 8.1 mph 17.3 mph N/A   Overcast
8:36 AM 42.8 °F 38.6 °F 42.8 °F 100% 29.04 in 3.0 mi East 6.9 mph 21.9 mph N/A   Overcast
8:56 AM 42.8 °F 39.3 °F 42.8 °F 100% 29.04 in 5.0 mi East 5.8 mph - N/A   Overcast
9:16 AM 42.8 °F 38.0 °F 42.8 °F 100% 29.04 in 3.0 mi ENE 8.1 mph - N/A   Overcast
9:36 AM 42.8 °F 38.6 °F 42.8 °F 100% 29.05 in 2.0 mi ENE 6.9 mph 18.4 mph N/A   Overcast
9:56 AM 42.8 °F 38.6 °F 42.8 °F 100% 29.06 in 2.5 mi ENE 6.9 mph 16.1 mph N/A   Overcast
10:16 AM 42.8 °F 37.0 °F 42.8 °F 100% 29.06 in 3.0 mi East 10.4 mph 21.9 mph N/A   Overcast
10:36 AM 42.8 °F 38.0 °F 42.8 °F 100% 29.06 in 3.0 mi East 8.1 mph - N/A   Overcast
10:56 AM 42.8 °F 38.0 °F 42.8 °F 100% 29.06 in 4.0 mi ENE 8.1 mph - N/A   Overcast
11:16 AM 42.8 °F 38.0 °F 42.8 °F 100% 29.06 in 4.0 mi ENE 8.1 mph - N/A   Overcast
11:36 AM 42.8 °F 38.0 °F 42.8 °F 100% 29.06 in 3.0 mi ENE 8.1 mph 20.7 mph N/A   Overcast
11:56 AM 42.8 °F 36.6 °F 42.8 °F 100% 29.06 in 3.0 mi ENE 11.5 mph 21.9 mph N/A   Overcast
12:16 PM 42.8 °F 37.0 °F 42.8 °F 100% 29.06 in 3.0 mi NE 10.4 mph 20.7 mph N/A   Overcast
12:36 PM 42.8 °F 37.5 °F 42.8 °F 100% 29.06 in 4.0 mi ENE 9.2 mph 27.6 mph N/A   Overcast
12:56 PM 42.8 °F 36.6 °F 42.8 °F 100% 29.06 in 3.0 mi ENE 11.5 mph 24.2 mph N/A   Overcast
1:16 PM 42.8 °F 38.6 °F 42.8 °F 100% 29.06 in 3.0 mi ENE 6.9 mph 20.7 mph N/A   Overcast
1:36 PM 42.8 °F 37.0 °F 42.8 °F 100% 29.06 in 4.0 mi ENE 10.4 mph 21.9 mph N/A   Overcast
1:56 PM 42.8 °F 37.5 °F 42.8 °F 100% 29.06 in 3.0 mi NE 9.2 mph 18.4 mph N/A   Overcast
2:16 PM 42.8 °F 37.5 °F 42.8 °F 100% 29.06 in 2.0 mi NE 9.2 mph 24.2 mph N/A   Overcast
2:36 PM 42.8 °F 36.6 °F 42.8 °F 100% 29.05 in 3.0 mi ENE 11.5 mph 20.7 mph N/A   Overcast
2:56 PM 42.8 °F 36.6 °F 42.8 °F 100% 29.05 in 4.0 mi NE 11.5 mph 21.9 mph N/A   Overcast
3:16 PM 42.8 °F 38.0 °F 42.8 °F 100% 29.04 in 4.0 mi NE 8.1 mph 21.9 mph N/A   Overcast
3:36 PM 42.8 °F 36.6 °F 42.8 °F 100% 29.04 in 6.0 mi East 11.5 mph 21.9 mph N/A   Overcast
3:56 PM 42.8 °F 38.0 °F 42.8 °F 100% 29.04 in 6.0 mi ENE 8.1 mph 21.9 mph N/A   Overcast
4:16 PM 42.8 °F 35.8 °F 42.8 °F 100% 29.04 in 3.0 mi ENE 13.8 mph 24.2 mph N/A   Overcast
4:36 PM 42.8 °F 37.5 °F 42.8 °F 100% 29.04 in 3.0 mi ENE 9.2 mph - N/A   Overcast
4:56 PM 42.8 °F 37.5 °F 42.8 °F 100% 29.04 in 3.0 mi ENE 9.2 mph 18.4 mph N/A   Overcast
5:16 PM 42.8 °F 36.6 °F 42.8 °F 100% 29.04 in 3.0 mi NE 11.5 mph 20.7 mph N/A   Overcast
5:36 PM 42.8 °F 36.2 °F 41.0 °F 93% 29.04 in 3.0 mi ENE 12.7 mph 21.9 mph N/A   Overcast
5:56 PM 42.8 °F 38.6 °F 41.0 °F 93% 29.04 in 4.0 mi NE 6.9 mph 16.1 mph N/A   Overcast
6:16 PM 42.8 °F 38.0 °F 41.0 °F 93% 29.05 in 4.0 mi NE 8.1 mph 26.5 mph N/A   Overcast
6:36 PM 42.8 °F 37.0 °F 41.0 °F 93% 29.05 in 4.0 mi NE 10.4 mph 20.7 mph N/A   Overcast
6:56 PM 42.8 °F 38.6 °F 41.0 °F 93% 29.06 in 2.5 mi ENE 6.9 mph 18.4 mph N/A   Overcast
7:16 PM 42.8 °F 37.5 °F 39.2 °F 87% 29.06 in 2.5 mi NE 9.2 mph 21.9 mph N/A   Overcast
7:36 PM 42.8 °F 37.5 °F 39.2 °F 87% 29.06 in 2.5 mi East 9.2 mph 18.4 mph N/A   Overcast
7:56 PM 41.0 °F 36.4 °F 39.2 °F 93% 29.07 in 2.5 mi NE 6.9 mph - N/A   Overcast
8:16 PM 41.0 °F 35.8 °F 39.2 °F 93% 29.08 in 5.0 mi ENE 8.1 mph 21.9 mph N/A   Overcast
8:36 PM 42.8 °F 37.5 °F 39.2 °F 87% 29.08 in 10.0 mi ENE 9.2 mph 17.3 mph N/A   Overcast
8:56 PM 42.8 °F 39.3 °F 41.0 °F 93% 29.09 in 8.0 mi NE 5.8 mph - N/A   Overcast
9:16 PM 42.8 °F - 41.0 °F 93% 29.09 in 5.0 mi Calm Calm - N/A   Overcast
9:36 PM 42.8 °F 38.6 °F 41.0 °F 93% 29.10 in 5.0 mi East 6.9 mph - N/A   Overcast
9:56 PM 42.8 °F 38.0 °F 41.0 °F 93% 29.11 in 5.0 mi NE 8.1 mph 20.7 mph N/A   Overcast
10:16 PM 42.8 °F 38.0 °F 41.0 °F 93% 29.12 in 3.0 mi NE 8.1 mph 19.6 mph N/A   Overcast
10:36 PM 42.8 °F 36.6 °F 41.0 °F 93% 29.12 in 6.0 mi NE 11.5 mph 18.4 mph N/A   Overcast
10:56 PM 42.8 °F 38.0 °F 41.0 °F 93% 29.13 in 5.0 mi ENE 8.1 mph - N/A   Overcast
11:16 PM 42.8 °F 39.3 °F 41.0 °F 93% 29.14 in 7.0 mi East 5.8 mph 16.1 mph N/A   Overcast
11:36 PM 42.8 °F 38.0 °F 41.0 °F 93% 29.15 in 8.0 mi ENE 8.1 mph 17.3 mph N/A   Overcast
11:56 PM 42.8 °F 37.5 °F 41.0 °F 93% 29.16 in 7.0 mi East 9.2 mph - N/A   Overcast